CW6421 Weather Reports


Display with metric or nautical units.
time (UTC)temp
F
wind
direction
speed
MPH
gust
MPH
rain 1hr
in
rain 24hr
in
rain mn
in
humidity
%
barometer
mb
20260507014528 46 37 11.0 18.0 0.00 0.60 0.00 86 1010.1
20260507012526 47 21 11.0 17.0 0.00 0.61 0.00 86 1010.1
20260507011528 47 49 9.0 19.0 0.00 0.62 0.00 86 1010.1
20260507010526 47 42 10.0 20.0 0.00 0.63 0.00 86 1009.8
20260507005526 47 57 12.0 17.0 0.00 0.63 0.00 86 1009.8
20260507004529 47 45 13.0 18.0 0.00 0.64 0.00 86 1009.8
20260507003526 47 44 13.0 18.0 0.00 0.64 0.00 86 1009.8
20260507002526 47 30 13.0 17.0 0.00 0.64 0.00 86 1009.8
20260507001529 47 41 13.0 20.0 0.00 0.64 0.00 86 1009.8
20260506235526 47 40 13.0 22.0 0.00 0.65 0.00 86 1009.3
20260506234529 47 45 15.0 20.0 0.00 0.65 0.00 86 1009.3
20260506233526 48 44 14.0 22.0 0.00 0.65 0.00 86 1009.3
20260506231529 48 30 14.0 20.0 0.00 0.65 0.00 86 1009.3
20260506230527 49 39 14.0 15.0 0.00 0.65 0.00 86 1008.8
20260506225527 49 37 14.0 16.0 0.00 0.65 0.00 86 1008.8
20260506224529 50 22 16.0 16.0 0.00 0.65 0.00 87 1008.8
20260506223527 50 26 14.0 17.0 0.00 0.65 0.00 87 1008.8
20260506222527 51 19 14.0 18.0 0.00 0.65 0.00 87 1008.7
20260506221528 51 34 10.0 19.0 0.00 0.65 0.00 87 1008.7
20260506220528 51 45 8.0 19.0 0.00 0.65 0.00 87 1008.7
20260506215527 51 37 7.0 20.0 0.00 0.65 0.00 87 1008.7
20260506214529 51 33 9.0 17.0 0.00 0.65 0.00 87 1008.7
20260506213530 51 42 8.0 20.0 0.00 0.65 0.00 87 1008.7
20260506212526 51 41 7.0 19.0 0.00 0.65 0.00 87 1008.7
20260506211530 51 59 12.0 17.0 0.00 0.65 0.00 88 1008.7
20260506210529 52 66 12.0 16.0 0.00 0.65 0.00 88 1008.5
20260506205528 52 70 10.0 15.0 0.00 0.65 0.00 88 1008.5
20260506204530 52 52 9.0 18.0 0.00 0.65 0.00 88 1008.5
20260506202526 52 50 8.0 18.0 0.00 0.65 0.00 89 1008.5
20260506201528 52 27 8.0 17.0 0.00 0.65 0.00 89 1008.5
20260506200528 52 29 7.0 17.0 0.00 0.65 0.00 89 1008.0
20260506195527 52 22 7.0 17.0 0.00 0.65 0.00 89 1008.0
20260506193526 52 53 9.0 17.0 0.00 0.65 0.00 88 1008.0
20260506192526 52 56 12.0 17.0 0.00 0.65 0.00 88 1008.0
20260506190527 52 63 8.0 15.0 0.00 0.65 0.00 88 1007.3
20260506185527 53 50 9.0 15.0 0.00 0.65 0.00 88 1007.3
20260506184530 53 41 12.0 15.0 0.00 0.65 0.00 88 1007.3
20260506183527 53 45 11.0 14.0 0.00 0.65 0.00 88 1007.3
20260506182526 53 32 9.0 16.0 0.00 0.65 0.00 88 1007.3
20260506181528 53 46 8.0 15.0 0.00 0.65 0.00 88 1007.3
20260506180526 53 48 8.0 13.0 0.00 0.65 0.00 88 1007.1
20260506175527 53 40 11.0 15.0 0.00 0.65 0.00 88 1007.1
20260506174530 54 60 10.0 15.0 0.00 0.65 0.00 89 1007.1
20260506173526 54 42 12.0 15.0 0.00 0.65 0.00 89 1007.1
20260506172527 54 48 10.0 14.0 0.00 0.65 0.00 88 1007.1
20260506171528 54 52 10.0 13.0 0.00 0.66 0.00 89 1007.1
20260506170528 54 60 9.0 12.0 0.00 0.66 0.00 88 1007.2
20260506165527 55 55 9.0 11.0 0.00 0.66 0.00 88 1007.2
20260506164530 55 34 10.0 11.0 0.00 0.66 0.00 88 1007.2
20260506163528 55 24 9.0 13.0 0.00 0.66 0.00 89 1007.2
20260506162528 55 31 9.0 11.0 0.00 0.66 0.00 89 1007.2
20260506161529 55 40 10.0 12.0 0.00 0.66 0.00 89 1007.2
20260506160527 55 23 10.0 14.0 0.00 0.66 0.00 89 1007.3
20260506155527 55 39 9.0 16.0 0.00 0.66 0.00 89 1007.3
20260506154530 55 40 6.0 14.0 0.00 0.66 0.00 89 1007.3
20260506153528 55 44 7.0 16.0 0.00 0.66 0.00 89 1007.3
20260506152527 55 48 8.0 15.0 0.00 0.66 0.00 90 1007.3
20260506151530 55 40 8.0 16.0 0.00 0.66 0.00 90 1007.3
20260506150528 55 37 9.0 12.0 0.00 0.66 0.00 90 1007.1
20260506145527 55 25 8.0 12.0 0.00 0.66 0.00 90 1007.1
20260506144529 55 26 8.0 12.0 0.00 0.66 0.00 91 1007.1
20260506143527 55 36 9.0 13.0 0.00 0.66 0.00 91 1007.1
20260506142527 55 30 9.0 13.0 0.00 0.66 0.00 91 1007.1
20260506140527 55 21 10.0 11.0 0.00 0.66 0.00 91 1006.9
20260506135527 55 17 10.0 12.0 0.00 0.66 0.00 91 1006.9
20260506134530 54 10 7.0 11.0 0.00 0.66 0.00 91 1006.9
20260506133528 54 9 6.0 11.0 0.00 0.66 0.00 91 1006.9
20260506132528 55 3 7.0 12.0 0.00 0.66 0.00 92 1006.9
20260506131530 55 1 8.0 11.0 0.00 0.66 0.00 92 1006.9
20260506130528 54 17 8.0 16.0 0.00 0.66 0.00 92 1006.9
20260506125527 54 11 8.0 14.0 0.00 0.66 0.00 92 1006.9
20260506124531 54 11 7.0 16.0 0.00 0.66 0.00 92 1006.9
20260506121530 54 33 5.0 14.0 0.00 0.66 0.00 92 1006.9
20260506120528 55 35 4.0 15.0 0.00 0.66 0.00 92 1006.3
20260506115526 55 26 5.0 16.0 0.01 0.66 0.00 92 1006.3
20260506112527 55 11 8.0 14.0 0.02 0.65 0.00 92 1006.3
20260506111530 55 10 9.0 15.0 0.03 0.65 0.00 92 1006.3
20260506110528 54 350 8.0 17.0 0.03 0.65 0.00 93 1005.7
20260506105528 55 9 10.0 17.0 0.04 0.65 0.00 93 1005.7
20260506103527 54 1 10.0 17.0 0.04 0.64 0.00 93 1005.7
20260506102527 54 1 12.0 14.0 0.04 0.63 0.00 93 1005.1
20260506101529 54 351 10.0 13.0 0.04 0.63 0.00 93 1005.1
20260506100527 54 354 9.0 12.0 0.04 0.62 0.00 93 1005.1
20260506095527 54 355 11.0 13.0 0.05 0.61 0.00 93 1005.1
20260506094530 53 6 11.0 13.0 0.06 0.61 0.00 93 1005.1
20260506093528 53 4 12.0 14.0 0.06 0.60 0.00 93 1005.1
20260506092527 53 6 13.0 14.0 0.07 0.59 0.00 93 1005.1
20260506091530 53 18 8.0 12.0 0.08 0.59 0.00 93 1005.1
20260506090528 53 2 8.0 15.0 0.09 0.58 0.00 93 1004.7
20260506085527 53 1 6.0 15.0 0.08 0.57 0.00 93 1004.7
20260506083527 53 31 6.0 17.0 0.07 0.54 0.00 93 1004.7
20260506081530 53 29 7.0 16.0 0.06 0.51 0.00 93 1004.7
20260506073528 53 34 8.0 15.0 0.05 0.47 0.00 93 1004.5
20260506071531 53 57 10.0 14.0 0.05 0.45 0.00 93 1004.5
20260506050528 53 48 12.0 14.0 0.07 0.37 0.00 92 1005.1
20260506043527 53 31 10.0 14.0 0.08 0.33 0.00 92 1005.1
20260506042529 53 41 11.0 14.0 0.08 0.32 0.00 91 1005.1
20260506041529 53 37 9.0 14.0 0.08 0.31 0.00 91 1005.1
20260506040526 53 40 10.0 15.0 0.08 0.30 0.00 91 1005.5
20260506034528 53 20 11.0 16.0 0.10 0.27 0.00 91 1005.5
20260506033526 53 21 8.0 16.0 0.10 0.25 0.00 91 1005.5
20260506032528 53 39 9.0 17.0 0.11 0.24 0.00 91 1005.5
20260506031528 53 23 7.0 17.0 0.12 0.23 0.00 91 1005.5
20260506030526 53 27 7.0 17.0 0.12 0.21 0.00 90 1005.9
20260506025527 53 19 7.0 17.0 0.11 0.19 0.00 90 1005.9
20260506024529 53 36 9.0 17.0 0.10 0.17 0.00 90 1005.9
20260506023526 53 43 8.0 19.0 0.09 0.15 0.00 90 1005.9
20260506022526 53 32 8.0 17.0 0.08 0.13 0.00 89 1005.9
20260506021528 53 53 11.0 17.0 0.07 0.11 0.00 89 1005.9
20260506020526 54 49 11.0 14.0 0.06 0.09 0.00 89 1006.6
20260506015529 54 51 11.0 13.0 0.05 0.08 0.00 89 1006.6